FDX5024 LFPG-EDDK

Flight info

Callsign FDX5024
Flight time 0h 42m
Altitude 21000
Route RANUX DCT VALEK/N0406F230 DCT LUTAX UM163 DIK N853 ARCKY T853 IBESA T860 ERUKI
Aircraft B77L/H-SDE1E2E3FGHIJ2J3J4J5M1RWXY/LB1D1

Departure

Time 2026-05-08 16:54
Airport Charles de Gaulle International Airport (LFPG)

Arrival

Time 2026-05-08 17:37
Airport Cologne Bonn Airport (EDDK)
Time Latitude Longitude Altitude Speed Heading
2026-05-08 16:31 49.01547 2.51081 359 ft 0 kts 355°
2026-05-08 16:43 49.01546 2.51081 359 ft 0 kts 355°
2026-05-08 16:46 49.01544 2.51082 359 ft 2 kts 355°
2026-05-08 16:47 49.01518 2.51085 359 ft 4 kts 355°
2026-05-08 16:47 49.01493 2.51088 359 ft 3 kts 356°
2026-05-08 16:47 49.01470 2.51084 361 ft 4 kts 47°
2026-05-08 16:47 49.01463 2.51050 365 ft 4 kts 89°
2026-05-08 16:48 49.01463 2.51035 362 ft 4 kts 86°
2026-05-08 16:50 49.01463 2.51039 362 ft 2 kts 86°
2026-05-08 16:50 49.01465 2.51076 363 ft 5 kts 85°
2026-05-08 16:51 49.01468 2.51147 366 ft 8 kts 85°
2026-05-08 16:51 49.01473 2.51241 359 ft 10 kts 85°
2026-05-08 16:51 49.01530 2.51291 363 ft 11 kts 358°
2026-05-08 16:51 49.01614 2.51286 364 ft 13 kts 357°
2026-05-08 16:52 49.01710 2.51278 365 ft 15 kts 356°
2026-05-08 16:52 49.01819 2.51267 359 ft 16 kts 356°
2026-05-08 16:52 49.01938 2.51256 364 ft 18 kts 359°
2026-05-08 16:52 49.02038 2.51354 368 ft 18 kts 56°
2026-05-08 16:53 49.02129 2.52370 360 ft 96 kts 85°
2026-05-08 16:53 49.02190 2.53630 364 ft 142 kts 85°
2026-05-08 16:53 49.02313 2.55301 394 ft 169 kts 81°
2026-05-08 16:54 49.02425 2.57126 575 ft 178 kts 86°
2026-05-08 16:54 49.02479 2.59018 881 ft 181 kts 84°
2026-05-08 16:54 49.02568 2.60951 1247 ft 182 kts 85°
2026-05-08 16:54 49.02688 2.62873 1629 ft 182 kts 83°
2026-05-08 16:55 49.02809 2.64804 1973 ft 185 kts 84°
2026-05-08 16:55 49.02889 2.66141 2024 ft 198 kts 84°
2026-05-08 16:55 49.03000 2.68303 2153 ft 213 kts 85°
2026-05-08 16:55 49.03112 2.70659 2243 ft 233 kts 85°
2026-05-08 16:56 49.03230 2.73204 2508 ft 247 kts 86°
2026-05-08 16:56 49.03353 2.75839 3007 ft 252 kts 85°
2026-05-08 16:56 49.03480 2.78542 3526 ft 258 kts 85°
2026-05-08 16:56 49.03610 2.81275 4113 ft 260 kts 85°
2026-05-08 16:57 49.03742 2.84042 4688 ft 263 kts 86°
2026-05-08 16:57 49.03876 2.86842 5250 ft 266 kts 86°
2026-05-08 16:57 49.04010 2.89676 5766 ft 270 kts 86°
2026-05-08 16:57 49.04144 2.92511 6319 ft 272 kts 86°
2026-05-08 16:58 49.04315 2.95396 6838 ft 275 kts 85°
2026-05-08 16:58 49.04532 2.98320 7343 ft 278 kts 84°
2026-05-08 16:58 49.04757 3.01262 7846 ft 281 kts 84°
2026-05-08 16:58 49.04984 3.04245 8321 ft 285 kts 84°
2026-05-08 16:59 49.05211 3.07272 8817 ft 288 kts 84°
2026-05-08 16:59 49.05437 3.10325 9334 ft 291 kts 85°
2026-05-08 16:59 49.05663 3.13403 9836 ft 294 kts 85°
2026-05-08 16:59 49.05891 3.16526 10232 ft 300 kts 85°
2026-05-08 17:00 49.06125 3.19775 10354 ft 317 kts 85°
2026-05-08 17:00 49.06371 3.23207 10509 ft 334 kts 85°
2026-05-08 17:00 49.06629 3.26825 10656 ft 352 kts 85°
2026-05-08 17:00 49.06899 3.30632 10817 ft 369 kts 85°
2026-05-08 17:01 49.07179 3.34581 11211 ft 379 kts 84°
2026-05-08 17:01 49.07464 3.38621 11730 ft 386 kts 84°
2026-05-08 17:01 49.07749 3.42671 12418 ft 390 kts 84°
2026-05-08 17:01 49.08038 3.46792 13138 ft 393 kts 84°
2026-05-08 17:02 49.08328 3.50969 13802 ft 397 kts 84°
2026-05-08 17:02 49.08619 3.55189 14355 ft 402 kts 84°
2026-05-08 17:02 49.08911 3.59458 14933 ft 406 kts 84°
2026-05-08 17:02 49.09204 3.63762 15552 ft 409 kts 84°
2026-05-08 17:03 49.09493 3.68031 16156 ft 413 kts 84°
2026-05-08 17:03 49.09788 3.72408 16736 ft 416 kts 84°
2026-05-08 17:03 49.10084 3.76818 17318 ft 420 kts 84°
2026-05-08 17:03 49.10381 3.81273 17887 ft 424 kts 84°
2026-05-08 17:04 49.10675 3.85710 18446 ft 427 kts 84°
2026-05-08 17:04 49.10933 3.89625 18880 ft 430 kts 84°
2026-05-08 17:04 49.11183 3.93439 19307 ft 432 kts 84°
2026-05-08 17:04 49.11481 3.98018 19805 ft 435 kts 84°
2026-05-08 17:05 49.11782 4.02647 20289 ft 439 kts 84°
2026-05-08 17:05 49.12081 4.07305 20776 ft 442 kts 84°
2026-05-08 17:05 49.12381 4.11987 21254 ft 445 kts 84°
2026-05-08 17:05 49.12682 4.16712 21733 ft 448 kts 84°
2026-05-08 17:06 49.12982 4.21465 22201 ft 452 kts 84°
2026-05-08 17:06 49.13283 4.26254 22673 ft 455 kts 84°
2026-05-08 17:06 49.13584 4.31077 23141 ft 458 kts 84°
2026-05-08 17:06 49.13919 4.35928 23588 ft 460 kts 80°
2026-05-08 17:07 49.14764 4.40589 23907 ft 463 kts 67°
2026-05-08 17:07 49.16034 4.45118 24276 ft 465 kts 65°
2026-05-08 17:07 49.17362 4.49644 24633 ft 468 kts 65°
2026-05-08 17:07 49.18689 4.54206 24994 ft 471 kts 65°
2026-05-08 17:08 49.19998 4.58819 25336 ft 475 kts 65°
2026-05-08 17:08 49.21290 4.63481 25698 ft 478 kts 66°
2026-05-08 17:08 49.22564 4.68169 26296 ft 475 kts 66°
2026-05-08 17:08 49.23820 4.72844 26742 ft 476 kts 66°
2026-05-08 17:09 49.25080 4.77557 27024 ft 480 kts 66°
2026-05-08 17:09 49.26350 4.82318 27306 ft 485 kts 66°
2026-05-08 17:09 49.27627 4.87115 27640 ft 488 kts 66°
2026-05-08 17:09 49.28910 4.91938 27982 ft 490 kts 66°
2026-05-08 17:10 49.30200 4.96797 28290 ft 493 kts 66°
2026-05-08 17:10 49.31491 5.01671 28719 ft 493 kts 66°
2026-05-08 17:10 49.32761 5.06472 29106 ft 494 kts 66°
2026-05-08 17:10 49.34058 5.11383 29033 ft 496 kts 66°
2026-05-08 17:11 49.36626 5.21145 29039 ft 491 kts 66°
2026-05-08 17:11 49.39173 5.30862 29045 ft 490 kts 66°
2026-05-08 17:12 49.41704 5.40552 29059 ft 488 kts 68°
2026-05-08 17:12 49.44216 5.50225 29052 ft 486 kts 68°
2026-05-08 17:13 49.46700 5.59825 29052 ft 485 kts 68°
2026-05-08 17:13 49.49174 5.69417 29038 ft 473 kts 68°
2026-05-08 17:14 49.50511 5.73945 29036 ft 456 kts 58°
2026-05-08 17:14 49.52353 5.77850 29065 ft 451 kts 47°
2026-05-08 17:14 49.57133 5.84005 29052 ft 447 kts 32°
2026-05-08 17:15 49.62400 5.89148 29060 ft 448 kts 32°
2026-05-08 17:15 49.67673 5.94342 29054 ft 449 kts 32°
2026-05-08 17:16 49.72918 5.99620 29063 ft 450 kts 33°
2026-05-08 17:16 49.78164 6.04937 29057 ft 451 kts 33°
2026-05-08 17:17 49.83407 6.10144 29058 ft 448 kts 27°
2026-05-08 17:17 49.86286 6.11994 29052 ft 446 kts 15°
2026-05-08 17:17 49.89313 6.13015 29069 ft 444 kts
2026-05-08 17:18 49.95464 6.13186 29084 ft 442 kts 358°
2026-05-08 17:18 50.01587 6.13105 29087 ft 443 kts 359°
2026-05-08 17:19 50.07752 6.13098 29094 ft 444 kts 359°
2026-05-08 17:19 50.13938 6.13127 29080 ft 444 kts 359°
2026-05-08 17:20 50.17021 6.13141 28881 ft 441 kts 359°
2026-05-08 17:20 50.20081 6.13157 28415 ft 437 kts 359°
2026-05-08 17:20 50.23115 6.13171 27917 ft 434 kts 359°
2026-05-08 17:20 50.26095 6.13203 27424 ft 430 kts
2026-05-08 17:21 50.29048 6.13835 26868 ft 430 kts 14°
2026-05-08 17:21 50.31866 6.15375 26378 ft 428 kts 24°
2026-05-08 17:21 50.34452 6.17648 25909 ft 426 kts 33°
2026-05-08 17:21 50.36885 6.20256 25468 ft 422 kts 34°
2026-05-08 17:22 50.39280 6.22808 24873 ft 412 kts 33°
2026-05-08 17:22 50.41663 6.25301 24039 ft 410 kts 33°
2026-05-08 17:22 50.44050 6.27769 23134 ft 409 kts 33°
2026-05-08 17:22 50.46418 6.30226 22283 ft 405 kts 34°
2026-05-08 17:23 50.48544 6.33068 21497 ft 400 kts 47°
2026-05-08 17:23 50.50278 6.36441 20770 ft 394 kts 58°
2026-05-08 17:23 50.51524 6.40239 19994 ft 390 kts 67°
2026-05-08 17:23 50.52536 6.44175 19235 ft 386 kts 69°
2026-05-08 17:24 50.53524 6.48083 18494 ft 383 kts 68°
2026-05-08 17:24 50.54528 6.51947 17694 ft 380 kts 68°
2026-05-08 17:24 50.55527 6.55710 16932 ft 375 kts 68°
2026-05-08 17:24 50.56538 6.59467 16196 ft 371 kts 67°
2026-05-08 17:25 50.57540 6.63178 15464 ft 366 kts 67°
2026-05-08 17:25 50.58532 6.66855 14720 ft 363 kts 67°
2026-05-08 17:25 50.59563 6.70453 14013 ft 359 kts 59°
2026-05-08 17:25 50.61193 6.73346 13232 ft 352 kts 32°
2026-05-08 17:26 50.63333 6.74946 12982 ft 331 kts 15°
2026-05-08 17:26 50.65507 6.75560 12833 ft 306 kts
2026-05-08 17:26 50.67587 6.75625 12459 ft 293 kts 359°
2026-05-08 17:26 50.69604 6.75640 11936 ft 287 kts 359°
2026-05-08 17:27 50.71591 6.75678 11328 ft 284 kts 359°
2026-05-08 17:27 50.73564 6.75729 10719 ft 285 kts 359°
2026-05-08 17:27 50.75527 6.75789 10322 ft 284 kts 360°
2026-05-08 17:27 50.77494 6.75857 10036 ft 280 kts 360°
2026-05-08 17:28 50.79432 6.75928 9672 ft 278 kts 360°
2026-05-08 17:28 50.81352 6.75998 9282 ft 276 kts 360°
2026-05-08 17:28 50.83269 6.76067 8910 ft 274 kts 360°
2026-05-08 17:28 50.85171 6.76127 8547 ft 272 kts 360°
2026-05-08 17:29 50.87058 6.76186 8177 ft 271 kts
2026-05-08 17:29 50.88924 6.76246 7822 ft 269 kts
2026-05-08 17:29 50.90784 6.76305 7466 ft 267 kts
2026-05-08 17:29 50.92636 6.76368 7111 ft 263 kts
2026-05-08 17:30 50.94385 6.76962 6591 ft 262 kts 22°
2026-05-08 17:30 50.96019 6.78174 6151 ft 263 kts 26°
2026-05-08 17:30 50.97640 6.79472 5813 ft 257 kts 29°
2026-05-08 17:30 50.98948 6.81286 5430 ft 247 kts 54°
2026-05-08 17:31 50.99952 6.83486 5021 ft 245 kts 53°
2026-05-08 17:31 51.00968 6.85576 4863 ft 232 kts 52°
2026-05-08 17:31 51.01925 6.87547 4696 ft 218 kts 57°
2026-05-08 17:31 51.02404 6.89696 4466 ft 200 kts 92°
2026-05-08 17:32 51.01971 6.91665 4204 ft 187 kts 127°
2026-05-08 17:32 51.01142 6.93232 3801 ft 184 kts 130°
2026-05-08 17:32 51.00338 6.94745 3582 ft 180 kts 130°
2026-05-08 17:32 50.99465 6.96227 3311 ft 187 kts 134°
2026-05-08 17:33 50.98527 6.97655 3048 ft 184 kts 136°
2026-05-08 17:33 50.97603 6.99012 2784 ft 177 kts 136°
2026-05-08 17:33 50.96698 7.00331 2554 ft 177 kts 136°
2026-05-08 17:33 50.95779 7.01651 2336 ft 178 kts 136°
2026-05-08 17:34 50.94877 7.02980 2069 ft 174 kts 136°
2026-05-08 17:34 50.93995 7.04279 1829 ft 173 kts 136°
2026-05-08 17:34 50.93117 7.05576 1582 ft 170 kts 136°
2026-05-08 17:34 50.92270 7.06794 1390 ft 164 kts 137°
2026-05-08 17:35 50.91448 7.07973 1115 ft 152 kts 136°
2026-05-08 17:35 50.90681 7.09088 933 ft 147 kts 137°
2026-05-08 17:35 50.89941 7.10159 737 ft 142 kts 137°
2026-05-08 17:35 50.89214 7.11213 572 ft 143 kts 136°
2026-05-08 17:36 50.88478 7.12285 393 ft 141 kts 136°
2026-05-08 17:36 50.87769 7.13309 247 ft 135 kts 136°
2026-05-08 17:36 50.87160 7.14194 253 ft 98 kts 137°
2026-05-08 17:36 50.86764 7.14770 272 ft 58 kts 138°
2026-05-08 17:37 50.86514 7.15131 283 ft 44 kts 138°
2026-05-08 17:37 50.86269 7.15318 297 ft 30 kts 167°
2026-05-08 17:37 50.86163 7.15353 295 ft 8 kts 171°
2026-05-08 17:37 50.86106 7.15347 295 ft 9 kts 195°
2026-05-08 17:38 50.86062 7.15298 300 ft 7 kts 234°
2026-05-08 17:38 50.86054 7.15278 300 ft 0 kts 241°
2026-05-08 17:38 50.86050 7.15261 295 ft 7 kts 247°
2026-05-08 17:38 50.86047 7.15157 298 ft 11 kts 288°
2026-05-08 17:39 50.86096 7.15062 297 ft 12 kts 317°
2026-05-08 17:39 50.86162 7.14966 295 ft 14 kts 317°
2026-05-08 17:39 50.86237 7.14856 286 ft 16 kts 317°
2026-05-08 17:39 50.86326 7.14728 281 ft 19 kts 317°
2026-05-08 17:40 50.86427 7.14581 275 ft 21 kts 317°
2026-05-08 17:40 50.86541 7.14417 268 ft 24 kts 317°
2026-05-08 17:40 50.86663 7.14241 265 ft 24 kts 317°
2026-05-08 17:40 50.86802 7.14098 259 ft 25 kts 322°
2026-05-08 17:41 50.86930 7.13913 254 ft 26 kts 317°
2026-05-08 17:41 50.87023 7.13778 247 ft 28 kts 317°
2026-05-08 17:41 50.87169 7.13567 242 ft 29 kts 317°
2026-05-08 17:41 50.87319 7.13352 237 ft 29 kts 318°
2026-05-08 17:42 50.87469 7.13136 237 ft 28 kts 317°
2026-05-08 17:42 50.87596 7.12950 237 ft 20 kts 317°
2026-05-08 17:42 50.87675 7.12835 237 ft 8 kts 316°
2026-05-08 17:42 50.87670 7.12757 237 ft 8 kts 224°
2026-05-08 17:43 50.87647 7.12721 237 ft 4 kts 226°
2026-05-08 17:43 50.87633 7.12698 237 ft 1 kts 227°
2026-05-08 17:43 50.87632 7.12696 237 ft 0 kts 227°
2026-05-08 17:44 50.87638 7.12707 237 ft 0 kts 227°